Tracking 31013 objects as of 10-Jul-2025
HD Live streaming from Space Station
objects crossing your sky now

COSMOS 1275 DEB

Track COSMOS 1275 DEB now!
10-day predictions


NORAD ID: 17615
Int'l Code: 1981-053KM
Perigee: 820.0 km
Apogee: 876.3 km
Inclination: 82.9 °
Period: 101.7 minutes
Semi major axis: 7219 km
RCS: 0.0146 m2 (small)
Launch date: June 4, 1981
Source: Commonwealth of Independent States (former USSR) (CIS)
Launch site: PLESETSK MISSILE AND SPACE COMPLEX (PKMTR)

Note: This is SATELLITE DEBRIS
Your satellite tracking list
Your tracking list is empty




NASA's NSSDC Master Catalog

Two Line Element Set (TLE):
1 17615U 81053KJ  25191.01860652  .00001620  00000-0  81740-3 0  9995
2 17615  82.8543  23.5388 0038975 311.3158 178.4387 14.15388250 44794
Source of the keplerian elements: AFSPC